Regional Weather Roundup
Issued by NWS

Home | Current Version | Previous Version | Text Only | Print | Product List | Glossary Off
Versions: 1 2 3 4 5 6 7 8 9 10 11 12 13 14 15 16 17 18 19 20 21 22 23 24 25 26 27 28 29 30 31 32 33 34 35 36 37 38 39 40 41 42 43 44 45 46 47 48 49 50

000
ASUS43 KLSX 262059
RWRMO

WEATHER SUMMARY FOR MISSOURI
NATIONAL WEATHER SERVICE SPRINGFIELD MO
300 PM CST FRI DEC 26 2014

NOTE: "FAIR" INDICATES FEW OR NO CLOUDS BELOW 12,000 FEET WITH NO
       SIGNIFICANT WEATHER AND/OR OBSTRUCTIONS TO VISIBILITY.
       CURRENT SKY AND/OR WEATHER CONDITIONS ARE NOT AVAILABLE FOR
       CHILLICOTHE AND FARMINGTON.

MOZ001>031-035>038-043-044-053-054-262200-
...NORTHERN AND WESTERN MISSOURI...

CITY           SKY/WX    TMP DP  RH WIND       PRES   REMARKS
KANSAS CTY INT CLOUDY    45  36  70 N7        29.90S
KANSAS C DTWN  CLOUDY    49  38  65 NW7       29.90S
LEE`S SUMMIT   CLOUDY    55  43  63 SW6       29.89F
ST JOSEPH      CLOUDY    39  33  79 NW9       29.94F
CHILLICOTHE      N/A     54  42  64 SW9       29.94R
KIRKSVILLE     PTSUNNY   53  42  66 S9        29.93R

$$
MOZ066>068-077>081-088>096-101>105-262200-
...SOUTHWEST MISSOURI...

CITY           SKY/WX    TMP DP  RH WIND       PRES   REMARKS
SPRINGFIELD    CLOUDY    53  45  74 SE18      29.94F
JOPLIN         CLOUDY    56  48  74 S14G24    29.91S

$$
MOZ032>034-039>042-045>050-055>058-069>072-262200-
...CENTRAL MISSOURI...

CITY           SKY/WX    TMP DP  RH WIND       PRES   REMARKS
COLUMBIA       CLOUDY    58  45  62 S14       29.95R
JEFFERSON CITY PTSUNNY   60  44  55 S14G21    29.96R
ROLLA          CLOUDY    55  44  66 S13       29.98R
SEDALIA        CLOUDY    59  45  59 S8        29.92F
OSAGE BEACH    PTSUNNY   55  43  62 S12G18    29.97R

$$
MOZ051-052-059>065-262200-
...EAST CENTRAL MISSOURI...

CITY           SKY/WX    TMP DP  RH WIND       PRES   REMARKS
ST LOUIS INTL  MOSUNNY   61  42  49 S12       30.01F
SPIRIT OF STL  MOSUNNY   61  43  51 SW8       29.99F
ST CHARLES     SUNNY     59  44  57 S13       29.99F

$$
MOZ072>076-082>087-097>100-106>115-262200-
...SOUTH CENTRAL AND SOUTHEAST MISSOURI...

CITY           SKY/WX    TMP DP  RH WIND       PRES   REMARKS
CAPE GIRARDEAU CLOUDY    52  44  74 S15G21    30.13S
FARMINGTON     MOSUNNY   55  43  62 S17G24    30.07S
POPLAR BLUFF   CLOUDY    52  41  66 S9        30.11F
WEST PLAINS    CLOUDY    51  41  68 S12       30.04F

$$



USA.gov is the U.S. government's official web portal to all federal, state and local government web resources and services.